This is the latest recevied weather packets stored in our database for station/object 4S6DRJ-13. If no packets are shown the sender has not sent any weather packets the latest 10 day(s).
| Time | Temp. | Humidity | Pressure | Rain* | Wind** | Luminosity | Snow |
|---|---|---|---|---|---|---|---|
| 1787851395 | 27.78° C | 87% | 1011 hPa | 0 mm | 0.89 m/s, 232° | 0 W/m² | - |
| 1787851334 | 27.78° C | 87% | 1010.9 hPa | 0 mm | 0.89 m/s, 273° | 0 W/m² | - |
| 1787851273 | 27.78° C | 87% | 1011 hPa | 0 mm | 1.34 m/s, 195° | 0 W/m² | - |
| 1787851213 | 27.78° C | 87% | 1011 hPa | 0 mm | 0.45 m/s, 226° | 0 W/m² | - |
| 1787851152 | 27.78° C | 87% | 1011 hPa | 0 mm | 0 m/s | 0 W/m² | - |
| 1787851092 | 27.78° C | 87% | 1011.1 hPa | 0 mm | 1.34 m/s, 248° | 0 W/m² | - |
| 1787851030 | 27.78° C | 87% | 1010.9 hPa | 0 mm | 0 m/s | 0 W/m² | - |
| 1787850969 | 27.78° C | 87% | 1011.1 hPa | 0 mm | 0.45 m/s, 235° | 0 W/m² | - |
| 1787850908 | 27.78° C | 87% | 1011 hPa | 0 mm | 1.34 m/s, 213° | 0 W/m² | - |
| 1787850847 | 27.78° C | 87% | 1011.2 hPa | 0 mm | 0.89 m/s, 210° | 0 W/m² | - |
| 1787850786 | 27.78° C | 87% | 1011.1 hPa | 0 mm | 0.45 m/s, 213° | 0 W/m² | - |
| 1787850725 | 27.78° C | 87% | 1011.1 hPa | 0 mm | 0.89 m/s, 219° | 0 W/m² | - |
| 1787850664 | 27.78° C | 87% | 1011.2 hPa | 0 mm | 0.45 m/s, 189° | 0 W/m² | - |
| 1787850603 | 27.78° C | 87% | 1011 hPa | 0 mm | 0.89 m/s, 251° | 0 W/m² | - |
| 1787850542 | 27.78° C | 87% | 1011.2 hPa | 0 mm | 0.89 m/s, 273° | 0 W/m² | - |
| 1787850481 | 27.78° C | 87% | 1011 hPa | 0 mm | 0.89 m/s, 228° | 0 W/m² | - |
| 1787850420 | 27.78° C | 87% | 1010.8 hPa | 0 mm | 0.45 m/s, 214° | 0 W/m² | - |
| 1787850359 | 27.78° C | 87% | 1011.1 hPa | 0 mm | 0 m/s | 0 W/m² | - |
| 1787850298 | 27.78° C | 87% | 1011.1 hPa | 0 mm | 0 m/s | 0 W/m² | - |
| 1787850237 | 27.78° C | 87% | 1011 hPa | 0 mm | 0.89 m/s, 222° | 0 W/m² | - |
| 1787850176 | 27.78° C | 87% | 1011.1 hPa | 0 mm | 0.89 m/s, 241° | 0 W/m² | - |
| 1787850115 | 27.78° C | 87% | 1011.3 hPa | 0 mm | 0.45 m/s, 236° | 0 W/m² | - |
| 1787850055 | 27.78° C | 87% | 1010.9 hPa | 0 mm | 1.79 m/s, 177° | 0 W/m² | - |
| 1787849993 | 27.78° C | 88% | 1011.1 hPa | 0 mm | 0.45 m/s, 179° | 0 W/m² | - |
| 1787849932 | 27.78° C | 87% | 1010.9 hPa | 0 mm | 1.34 m/s, 175° | 0 W/m² | - |
* Rain latest hour (hover to see other rain measurements)
** Current wind speed in m/s (hover to see current wind gust speed)